Location: Emporia
(38.4040°N, 96.1810°W)
Time: 02:03:27
(UTC-05:00)

ISS - Visible Passes

Search period start: 03 September 2014 00:00
Search period end: 13 September 2014 00:00
Orbit: 413 x 418 km, 51.6° (Epoch: 03 September)

Date Brightness Start Highest point End Pass type
(mag) Time Alt. Az. Time Alt. Az. Time Alt. Az.
09 Sep -0.5 06:18:40 10° SSE 06:20:46 16° SE 06:22:51 10° E visible
11 Sep -2.4 06:16:36 10° SSW 06:19:48 47° SE 06:23:01 10° ENE visible
12 Sep -1.4 05:29:51 19° S 05:31:10 25° SE 05:33:59 10° ENE visible
